OV1-4 R/B, 2124

Orbit data source: Space-Track

OV1-4 R/B, 2124 is space debris in LEO originally from a launch on Wed, 30 Mar 1966 UTC launched from the Air Force Western Test Range (AFWTR). Debris objects in space refer to the collection of defunct objects orbiting the Earth. Examples of debris include non-operational satellites, rocket bodies, and fragments generated from explosions, collisions, or faulty payload assembly.

Loading next visibility...
Identifier
2124, 1966-025D
Orbit
LEO
Country
Flag of USUS
Related business
Manufacturer
ABL
Mission
Spacecraft
Bus & Motor
ALTAIR, Unknown motor
Mass
~125 kg wet, ~125 kg dry
Launch date (UTC)
1966-03-30 (60 years ago)
Launch vehicle
Unknown
Launch site
Air Force Western Test Range (AFWTR)
Object type
Payload
Rocket body
Debris
Shape & HBR
Unknown
Radar Cross Section
Medium (>0.1 m² and <1 m²)

Expand to show TLE details & history
Last TLE update: 21 hours ago

TLE from 21 hours ago
0 OV1-4 R/B
1 02124U 66025D   26037.13031188  .00000374  00000-0  87091-4 0  9994
2 02124 144.5095 118.3498 0081284 252.6556 106.5216 13.87821752 33389
Epoch: 2026-02-06T03:07Z
TLE epoch observation values (Epoch: 2026-02-06T03:07:38.946Z)
Latitude
-0°
Longitude
-64.83508°
Altitude
952.642 km
Speed
7.369 km/s
True Right ascension
07h 53m 23s
True Declination
0° 00' 00"
Sunlit
Object was in full shadow at epoch
Visualization orbit readout
Latitude
Unknown
Longitude
Unknown
Altitude
Unknown
Speed
Unknown
Apparent Right ascension
Unknown
Apparent Declination
Unknown
Sunlit
N/A
Visualization observer readout
Local Sidereal Time
02:40:10
Azimuth
Unknown
Elevation
Unknown
Doppler factor
Unknown
Orbital elements
Apogee altitude
998.736 km
Perigee altitude
879.778 km
Semi-major axis
7,317.394 km
Eccentricity
0.00813
Inclination
144.5095°
RAAN
118.3498°
Arg. of periapsis
252.6556°
True anomaly
107.41198°
Mean anomaly
106.5216°
Eccentric anomaly
106.96705°
Mean motion
3.46744 °/min
Orbital period
103.82 mins
BSTAR
0.000087091
Loading maneuver chart data...
Computing Atmospheric mass density...
Loading historical data...
Loading historical data...
Loading historical data...
Loading historical data...
Loading historical data...
Loading historical data...
Loading historical data...

Documentation

Showing up to 5 results
|